User: anonymous   Login
Location: Newark
(7.0858°N, 171.3717°E)
Time: 06:43:17
(UTC+00:00)
Language:

Tiros 1 - Orbit

View from above orbital plane
View from above orbital plane
View from above satellite
View from above satellite

Ground track
Ground track

The orbit data is extracted from the following two-line orbital elements,

1    29U 60002B   20331.50654361 -.00000063 +00000-0 +21496-4 0  9994
2    29 048.3798 263.8238 0024162 207.1826 152.7822 14.74386345242454
Epoch (UTC): 26 November 2020 12:09:25
Eccentricity: 0.0024162
inclination: 48.3798°
perigee height: 630 km
apogee height: 664 km
right ascension of ascending node: 263.8238°
argument of perigee: 207.1826°
revolutions per day: 14.74386345
mean anomaly at epoch: 152.7822°
orbit number at epoch: 24245

The dashed part of the orbit path shows where the satellite is in the earth's shadow,  

DLR